Tracking 23757 objects as of 26-Oct-2021
HD Live streaming from Space Station
objects crossing your sky now

IRIDIUM 33 DEB

Track IRIDIUM 33 DEB now!
10-day predictions


NORAD ID: 35846
Int'l Code: 1997-051SW
Perigee: 765.8 km
Apogee: 795.8 km
Inclination: 86.4 °
Period: 100.3 minutes
Semi major axis: 7151 km
RCS: 0.0007 m2 (small)
Launch date: September 14, 1997
Source: United States (US)
Launch site: TYURATAM MISSILE AND SPACE COMPLEX (TTMTR)

Note: This is SATELLITE DEBRIS
aabbcc
Your satellite tracking list
Your tracking list is empty




NASA's NSSDC Master Catalog

Two Line Element Set (TLE):
1 35846U 97051SW  21296.83218364  .00000307  00000-0  99924-4 0  9990
2 35846  86.3794 337.9981 0021009  97.3497 263.0088 14.35420599496093
Source of the keplerian elements: AFSPC